This demonstration page uses our WeatherBlox Daily Observations layout. Learn more.

Left ArrowRight Arrow

Hourly Observations for June 4, 2017

Temp ( °F °C ) Dew Point ( °F °C ) Humidity (%) Winds ( mph kmh ) Pressure ( in mb ) Visibility ( mi km ) Precip ( " mm )
12:15 am 00:15 Clear 61 16 54 12 77 77 N N/A 30.06 1018 10 16 N/A
12:35 am 00:35 Clear 61 16 55 13 83 83 N N/A 30.06 1018 10 16 N/A
12:55 am 00:55 Clear 61 16 54 12 77 77 S 5 7 30.06 1018 10 16 N/A
1:15 am 01:15 Clear 63 17 54 12 73 73 N N/A 30.06 1018 10 16 N/A
1:35 am 01:35 Clear 61 16 54 12 77 77 W 5 7 30.06 1018 10 16 N/A
1:55 am 01:55 Clear 59 15 54 12 82 82 WNW 3 6 30.06 1018 10 16 N/A
2:15 am 02:15 Clear 61 16 54 12 77 77 N N/A 30.06 1018 10 16 N/A
2:35 am 02:35 Clear 59 15 54 12 82 82 S 3 6 30.06 1018 10 16 N/A
2:55 am 02:55 Clear 57 14 54 12 88 88 W 3 6 30.03 1017 10 16 N/A
3:15 am 03:15 Clear 59 15 54 12 82 82 N N/A 30.03 1017 10 16 N/A
3:35 am 03:35 Clear 57 14 54 12 88 88 N N/A 30.03 1017 10 16 N/A
3:55 am 03:55 Clear 59 15 54 12 82 82 SW 3 6 30.03 1017 10 16 N/A
4:15 am 04:15 Clear 57 14 54 12 88 88 SW 3 6 30.03 1017 10 16 N/A
4:35 am 04:35 Clear 55 13 54 12 94 94 N N/A 30.03 1017 10 16 N/A
4:55 am 04:55 Clear 59 15 54 12 82 82 N N/A 30.03 1017 10 16 N/A
5:15 am 05:15 Clear 59 15 54 12 82 82 N N/A 30.03 1017 10 16 N/A
5:35 am 05:35 Clear 57 14 54 12 88 88 S 3 6 30.00 1016 10 16 N/A
5:55 am 05:55 Sunny 55 13 54 12 94 94 N N/A 30.03 1017 10 16 N/A
6:15 am 06:15 Sunny 55 13 54 12 94 94 N N/A 30.03 1017 10 16 N/A
6:35 am 06:35 Sunny 57 14 55 13 94 94 N N/A 30.03 1017 10 16 N/A
6:55 am 06:55 Mostly Cloudy 59 15 57 14 94 94 N N/A 30.03 1017 10 16 N/A
7:15 am 07:15 Mostly Cloudy 61 16 59 15 94 94 N N/A 30.03 1017 10 16 N/A
7:35 am 07:35 Partly Cloudy 63 17 59 15 88 88 N N/A 30.03 1017 10 16 N/A
7:55 am 07:55 Partly Cloudy 64 18 59 15 83 83 N N/A 30.03 1017 10 16 N/A
8:15 am 08:15 Sunny 66 19 59 15 78 78 N N/A 30.00 1016 10 16 N/A
8:35 am 08:35 Sunny 68 20 59 15 73 73 N N/A 30.03 1017 10 16 N/A
8:55 am 08:55 Sunny 70 21 61 16 73 73 N N/A 30.03 1017 10 16 N/A
9:15 am 09:15 Sunny 72 22 61 16 69 69 N N/A 30.03 1017 10 16 N/A
9:35 am 09:35 Sunny 73 23 61 16 65 65 N N/A 30.00 1016 10 16 N/A
9:55 am 09:55 Sunny 73 23 61 16 65 65 ESE 3 6 30.00 1016 10 16 N/A
10:15 am 10:15 Sunny 77 25 63 17 61 61 S 7 11 30.00 1016 10 16 N/A
10:35 am 10:35 Sunny 79 26 63 17 58 58 SW 6 9 30.00 1016 10 16 N/A
10:55 am 10:55 Sunny 81 27 61 16 51 51 WSW 6 9 29.97 1015 10 16 N/A
11:15 am 11:15 Sunny 82 28 59 15 45 45 S 10 17 29.97 1015 10 16 N/A
11:35 am 11:35 Sunny 84 29 59 15 43 43 SSW 9 15 29.97 1015 10 16 N/A
11:55 am 11:55 Sunny 84 29 55 13 37 37 S 10 17 29.97 1015 10 16 N/A
12:15 pm 12:15 Sunny 86 30 59 15 40 40 SW 9 15 29.91 1013 10 16 N/A
12:35 pm 12:35 Sunny 86 30 57 14 38 38 S 10 17 29.91 1013 10 16 N/A
12:55 pm 12:55 Sunny 86 30 57 14 38 38 WSW 8 13 29.91 1013 10 16 N/A
1:15 pm 13:15 Sunny 86 30 57 14 38 38 SW 9 15 29.91 1013 10 16 N/A
1:35 pm 13:35 Sunny 86 30 59 15 40 40 WSW 9 15 29.88 1012 10 16 N/A
1:55 pm 13:55 Sunny 88 31 61 16 40 40 SSW 7 11 29.88 1012 10 16 N/A
2:15 pm 14:15 Sunny 88 31 59 15 38 38 SSW 7 11 29.88 1012 10 16 N/A
2:35 pm 14:35 Sunny 88 31 61 16 40 40 SSW 10 17 29.88 1012 10 16 N/A
2:55 pm 14:55 Sunny 88 31 59 15 38 38 SW 8 13 29.85 1011 10 16 N/A
3:15 pm 15:15 Sunny 88 31 61 16 40 40 SW 5 7 29.85 1011 10 16 N/A
3:35 pm 15:35 Sunny 88 31 61 16 40 40 SSW 8 13 29.85 1011 10 16 N/A
3:55 pm 15:55 Sunny 90 32 61 16 38 38 S 7 11 29.83 1010 10 16 N/A
4:15 pm 16:15 Sunny 88 31 59 15 38 38 SSW 9 15 29.83 1010 10 16 N/A
4:35 pm 16:35 Sunny 90 32 61 16 38 38 SSW 8 13 29.83 1010 10 16 N/A
4:55 pm 16:55 Sunny 88 31 59 15 38 38 SSW 8 13 29.80 1009 10 16 N/A
5:15 pm 17:15 Sunny 88 31 59 15 38 38 SSW 8 13 29.80 1009 10 16 N/A
5:35 pm 17:35 Sunny 88 31 61 16 40 40 SSW 6 9 29.80 1009 10 16 N/A
5:55 pm 17:55 Sunny 88 31 61 16 40 40 SSW 3 6 29.80 1009 10 16 N/A
6:15 pm 18:15 Sunny 88 31 63 17 43 43 SSW 7 11 29.80 1009 10 16 N/A
6:35 pm 18:35 Partly Cloudy 88 31 61 16 40 40 SSW 6 9 29.80 1009 10 16 N/A
6:55 pm 18:55 Partly Cloudy 86 30 63 17 46 46 SSW 3 6 29.80 1009 10 16 N/A
7:15 pm 19:15 Sunny 86 30 63 17 46 46 S 5 7 29.80 1009 10 16 N/A
7:35 pm 19:35 Sunny 84 29 63 17 48 48 S 3 6 29.80 1009 10 16 N/A
7:55 pm 19:55 Sunny 82 28 63 17 51 51 N N/A 29.83 1010 10 16 N/A
8:15 pm 20:15 Sunny 82 28 63 17 51 51 N N/A 29.83 1010 10 16 N/A
8:35 pm 20:35 Clear 81 27 63 17 54 54 SSW 5 7 29.83 1010 10 16 N/A
8:55 pm 20:55 Partly Cloudy 81 27 63 17 54 54 S 6 9 29.83 1010 10 16 N/A
9:15 pm 21:15 Partly Cloudy 79 26 63 17 58 58 S 6 9 29.83 1010 10 16 N/A
9:35 pm 21:35 Partly Cloudy 79 26 64 18 61 61 S 3 6 29.83 1010 10 16 N/A
9:55 pm 21:55 Partly Cloudy 77 25 64 18 65 65 WSW 3 6 29.83 1010 10 16 N/A
10:15 pm 22:15 Partly Cloudy 73 23 64 18 74 74 N N/A 29.83 1010 10 16 N/A
10:35 pm 22:35 Mostly Cloudy 73 23 64 18 74 74 N N/A 29.83 1010 10 16 N/A
10:55 pm 22:55 Partly Cloudy 72 22 63 17 73 73 N N/A 29.83 1010 10 16 N/A
11:15 pm 23:15 Clear 72 22 63 17 73 73 N N/A 29.83 1010 10 16 N/A
11:35 pm 23:35 Clear 70 21 63 17 78 78 NNW 3 6 29.80 1009 10 16 N/A
11:55 pm 23:55 Clear 70 21 61 16 73 73 N 3 6 29.80 1009 10 16 N/A

Powered by AerisWeather